Regional Weather Roundup
Issued by NWS

Home | Current Version | Previous Version | Text Only | Print | Product List | Glossary On
Versions: 1 2 3 4 5 6 7 8 9 10 11 12 13 14 15 16 17 18 19 20 21 22 23 24 25 26 27 28 29 30 31 32 33 34 35 36 37 38 39 40 41 42 43 44 45 46 47 48 49 50
000
ASUS43 KDMX 232201
RWRIA

WEATHER ROUNDUP FOR IOWA
NATIONAL WEATHER SERVICE DES MOINES IA
500 PM CDT FRI JUN 23 2017

NOTE: "FAIR" INDICATES FEW OR NO CLOUDS BELOW 12,000 FEET WITH NO
SIGNIFICANT WEATHER AND/OR OBSTRUCTIONS TO VISIBILITY.

* - THESE STATIONS ARE NOT NWS STATIONS...THUS NOT UNDER NWS
QUALITY CONTROL.  THEY ALSO DO NOT REPORT WEATHER SUCH
AS PRECIPITATION OR FOG.

IAZ001>003-012>014-020>022-031>034-043>046-232300-
   NORTHWEST IOWA

CITY           SKY/WX    TMP DP  RH WIND       PRES   REMARKS
CARROLL *      MOSUNNY   73  50  43 NW17G29   29.95R
CHEROKEE *     PTSUNNY   69  53  56 NW9G21    29.97S
DENISON *      MOSUNNY   72  50  46 NW18G26   29.98S
LE MARS *      PTSUNNY   70  50  49 NW20G28   29.99S
ORANGE CITY *  MOSUNNY   68  52  56 NW20G28   29.99R
SHELDON *      PTSUNNY   68  50  52 NW18G24   29.96S
SIOUX CITY     PTSUNNY   74  51  44 NW17G28   29.98S
SPENCER        PTSUNNY   71  50  47 NW18      29.95F
STORM LAKE *   SUNNY     68  48  49 NW15G24   29.97S
$$

IAZ055>058-069>071-079>083-090>094-232300-
   SOUTHWEST IOWA

CITY           SKY/WX    TMP DP  RH WIND       PRES   REMARKS
ATLANTIC *     MOSUNNY   72  52  49 NW17G24   29.97S
AUDUBON *      MOSUNNY   72  52  49 NW16G30   29.97S
CLARINDA *     MOSUNNY   73  54  49 N16G23    30.00S
COUNCIL BLFS * CLOUDY    73  50  43 NW13G23   29.98S
CRESTON *      PTSUNNY   73  54  49 NW20G26   29.97R
HARLAN  *      PTSUNNY   72  52  49 NW16G25   30.00S
LAMONI         MOSUNNY   74  54  49 NW17G28   29.95R
RED OAK *      MOSUNNY   73  54  49 NW15G22   29.98S
SHENANDOAH *   MOSUNNY   73  54  49 NW13G23   29.99S
$$

IAZ047>049-059>061-072>074-084-232300-
   CENTRAL IOWA

CITY           SKY/WX    TMP DP  RH WIND       PRES   REMARKS
AMES           MOSUNNY   75  53  46 NW18G26   29.91R
ANKENY *       MOSUNNY   73  54  49 NW16G24   29.92R
BOONE *        PTSUNNY   72  54  53 NW18G25   29.92R
CHARITON *     MOSUNNY   75  55  50 NW14G23   29.92R
DES MOINES     PTSUNNY   75  50  41 NW22G31   29.90S
GRINNELL*      MOSUNNY   73  53  50 NW15G24   29.90S
KNOXVILLE *    MOSUNNY   73  52  46 NW14G22   29.89S
MARSHALLTOWN   MOSUNNY   72  54  53 NW20      29.88R
NEWTON *       SUNNY     73  52  46 NW20G28   29.90S
PELLA *        MOSUNNY   75  52  43 NW10G21   29.90S
PERRY *        PTSUNNY   71  49  45 NW10      29.94R
$$

IAZ004>006-015-016-023>025-035-036-232300-
   NORTH CENTRAL IOWA

CITY           SKY/WX    TMP DP  RH WIND       PRES   REMARKS
ALGONA *       PTSUNNY   70  52  52 NW23G30   29.93R
CLARION *        N/A     70  55  60 NW22G29   29.92R
ESTHERVILLE    PTSUNNY   67  52  58 NW24      29.93R
FORT DODGE *   MOSUNNY   72  52  49 NW14G20   29.94S
MASON CITY     MOSUNNY   71  53  52 NW21G29   29.90R
FOREST CITY *  PTSUNNY   70  46  43 NW16      29.89S
WEBSTER CITY * PTSUNNY   70  52  52 NW22G31   29.91R
IOWA FALLS *   PTSUNNY   71  54  55 NW18G28   29.92R
$$

IAZ007>011-017>019-026>030-037>042-050>054-066-232300-
   NORTHEAST IOWA

CITY           SKY/WX    TMP DP  RH WIND       PRES   REMARKS
CEDAR RAPIDS   PTSUNNY   73  56  54 NW22G30   29.85S
CHARLES CITY * CLOUDY    68  54  60 NW18G30   29.86F
CLINTON *      MOSUNNY   75  56  51 NW26G32   29.80R
DECORAH *      CLOUDY    68  55  64 NW10G17   29.82F
DUBUQUE        MOSUNNY   71  54  54 NW21G30   29.83R
MONTICELLO *   PTSUNNY   73  55  53 NW21G29   29.83R
OELWEIN *      CLOUDY    68  59  73 NW14G21   29.85F
WATERLOO       CLOUDY    72  51  47 NW18G30   29.84F
$$

IAZ064-065-067-068-078-232300-
   EAST CENTRAL IOWA

CITY           SKY/WX    TMP DP  RH WIND       PRES   REMARKS
DAVENPORT      MOSUNNY   74  56  53 NW28G35   29.82R
IOWA CITY      SUNNY     76  54  46 NW20G30   29.86R
MT. PLEASANT * MOSUNNY   76  51  40 NW21G28   29.85R
MUSCATINE *    MOSUNNY   75  54  46 NW22G29   29.85R
QUAD CITIES    SUNNY     79  55  43 NW25G33   29.80R
$$

IAZ062-063-075>077-085>089-095>099-232300-
   SOUTHEAST IOWA

CITY           SKY/WX    TMP DP  RH WIND       PRES   REMARKS
BURLINGTON     SUNNY     80  55  42 NW15G23   29.83R HX  80
FAIRFIELD *    SUNNY     75  50  41 NW22G30   29.87R
FORT MADISON * SUNNY     81  52  36 NW22G29   29.84R HX  80
KEOKUK *       MOSUNNY   81  54  39 NW14G23   29.83R HX  80
OSKALOOSA *    PTSUNNY   74  53  47 NW17      29.90R
OTTUMWA        MOSUNNY   78  53  41 NW17G24   29.89R
WASHINGTON *   SUNNY     77  54  44 NW22G29   29.87S
$$

ABBREVIATIONS USED IN REMARKS
   TC - TEMPERATURES IN CELSIUS
  WCI - WIND CHILL INDEX
   HX - HEAT INDEX
  VSB - VISIBILITY
$$




USA.gov is the U.S. government's official web portal to all federal, state and local government web resources and services.